Tracking 20037 objects as of 17-Nov-2019
Live streaming from Space Station
objects crossing your sky now

RAAVANA1

Track RAAVANA1 now!
10-day predictions
RAAVANA1 is classified as:


NORAD ID: 44330
Int'l Code: 1998-067QF
Perigee: 408.2 km
Apogee: 416.5 km
Inclination: 51.6 °
Period: 92.7 minutes
Semi major axis: 6783 km
RCS: Unknown
Launch date: November 20, 1998
Source: Democratic Socialist Republic of Sri Lanka (LKA)
Launch site: TYURATAM MISSILE AND SPACE COMPLEX (TTMTR)

Uplink (MHz):
Downlink (MHz): 437.375
Beacon (MHz): 437.375
Mode: 4800bps GMSK CW
Call sign: JG6YLE
Status: Active

aabbcc
Your satellite tracking list
Your tracking list is empty




NASA's NSSDC Master Catalog

Two Line Element Set (TLE):
1 44330U 98067QF  19320.44011502 +.00007938 +00000-0 +12777-3 0  9990
2 44330 051.6407 323.8683 0006134 288.7809 071.2515 15.53956768023661
Source of the keplerian elements: AFSPC